#timestamp,LO_Frequency,Hit,StdDev 
1510052415.5,286047003.0,N
1510052435.4,286047008.4,N
1510052455.2,286047014.4,Y
1510052475.0,286047012.6,P
1510052475.9,286047012.6,P
1510052495.8,286047017.2,P
1510052515.6,286047015.0,Y
1510052535.5,286047005.2,P
1510052555.3,286047008.4,N
1510052575.1,286047006.1,N
1510052595.9,286047002.9,N
1510052615.7,286046996.9,N
1510052635.5,286046995.7,N
1510052655.4,286046995.4,N
1510052675.2,286047002.1,N
1510052695.0,286047000.8,N
1510052696.0,286047000.8,N
1510052715.8,286046999.9,N
1510052735.6,286046996.6,N
1510052755.5,286046995.1,N
1510052775.3,286046993.7,N
1510052795.1,286046994.8,N
1510052815.9,286046990.4,N
1510052835.7,286046988.7,N
1510052855.5,286046993.2,N
1510052875.4,286046989.1,N
1510052895.2,286046986.0,N
1510052915.0,286046985.7,N
1510052915.9,286046985.7,N
1510052935.8,286046986.6,N
1510052955.6,286046983.8,N
1510052975.4,286046990.0,N
1510052995.3,286046991.3,N
1510053015.1,286046990.5,N
1510053035.9,286046994.0,N
1510053055.7,286046994.6,N
1510053075.5,286046992.0,N
1510053095.4,286046991.4,N
1510053115.2,286046990.5,N
1510053135.0,286046992.5,N
1510053135.9,286046992.5,N
1510053155.8,286046994.5,N
1510053175.6,286046992.5,N
1510053195.4,286046993.1,N
1510053215.3,286046994.0,N
1510053235.1,286046999.1,N
1510053255.8,286047000.9,N
1510053275.7,286047004.3,N
1510053295.5,286047009.2,N
1510053315.3,286047008.1,N
1510053335.2,286047006.2,N
1510053355.0,286047012.7,N
1510053355.9,286047012.7,N
1510053375.8,286047020.2,N
1510053395.6,286047020.2,N
1510053415.4,286047022.2,N
1510053435.3,286047026.0,N
1510053455.1,286047019.9,N
1510053456.0,286047019.9,N
1510053475.8,286047014.8,N
1510053495.7,286047017.9,N
1510053515.5,286047016.6,N
1510053535.3,286047013.6,N
1510053555.2,286047007.7,N
1510053575.0,286047012.0,N
1510053575.9,286047012.0,N
1510053595.7,286047013.3,N
1510053615.6,286047012.5,N
1510053635.4,286047018.4,N
1510053655.3,286047025.0,N
1510053675.1,286047024.7,N
1510053676.0,286047024.7,N
1510053695.8,286047023.2,N
1510053715.7,286047023.2,N
1510053735.5,286047019.7,N
1510053755.3,286047015.8,N
1510053775.2,286047015.1,N
1510053795.0,286047014.0,N
1510053795.9,286047014.0,N
1510053815.7,286047010.0,N
1510053835.6,286047008.6,N
1510053855.4,286047002.9,N
1510053875.3,286047001.1,N
1510053895.1,286046999.1,N
1510053896.0,286046999.1,N
1510053915.8,286047001.0,N
1510053935.7,286046998.0,N
1510053955.5,286046995.8,N
1510053975.3,286046999.8,N
1510053995.2,286046992.0,N
1510054015.9,286046995.3,N
1510054035.7,286046995.6,N
1510054055.6,286046995.4,N
1510054075.4,286046995.3,N
1510054095.2,286046997.7,N
1510054115.1,286046996.2,N
1510054116.0,286046996.2,N
1510054135.8,286046996.0,N
1510054155.7,286046996.6,N
1510054175.5,286046989.5,N
1510054195.3,286046984.1,N
1510054215.2,286046988.1,N
1510054235.9,286046989.9,N
1510054255.7,286046984.8,N
1510054275.6,286046986.8,N
1510054295.4,286046988.0,N
1510054315.2,286046987.7,N
1510054335.1,286046993.1,N
1510054336.0,286046993.1,N
1510054355.8,286046990.8,N
1510054375.6,286046989.3,N
1510054395.5,286046985.5,N
1510054415.3,286046984.3,Y
1510054435.2,286046989.0,P
1510054455.9,286046989.3,P
1510054475.7,286046992.5,P
1510054495.6,286046990.8,Y
1510054515.4,286047007.1,P
1510054535.2,286047010.9,N
1510054555.1,286047020.2,N
1510054556.0,286047020.2,N
1510054575.8,286047015.6,N
1510054595.7,286047005.6,N
1510054615.5,286047010.1,N
1510054635.3,286047010.8,N
1510054655.2,286047004.2,N
1510054675.9,286047004.0,N
1510054695.7,286047003.9,N
1510054715.6,286047007.6,N
1510054735.4,286047006.0,N
1510054755.2,286047004.4,N
1510054775.1,286047000.6,N
1510054776.0,286047000.6,N
1510054795.8,286047005.5,N
1510054815.7,286047009.1,N
1510054835.5,286047006.1,N
1510054855.3,286047008.2,N
1510054875.2,286047010.2,N
1510054895.9,286047011.8,N
1510054915.7,286047010.8,N
1510054935.6,286047012.3,N
1510054955.4,286047014.1,N
1510054975.2,286047018.6,Y
1510054995.1,286047011.1,P
1510054996.0,286047011.1,P
1510055015.8,286047007.3,P
1510055035.7,286047004.2,N
1510055055.5,286047003.5,N
1510055075.3,286046998.7,N
1510055095.2,286046992.5,N
1510055115.9,286046994.7,N
1510055135.7,286046991.8,N
1510055155.6,286046993.1,N
1510055175.4,286046988.9,N
1510055195.2,286046987.8,N
1510055215.1,286046990.5,N
1510055216.0,286046990.5,N
1510055235.8,286046994.5,N
1510055255.6,286046992.5,N
1510055275.5,286046991.1,N
1510055295.3,286046994.7,N
1510055315.1,286046995.3,N
1510055335.9,286046994.4,N
1510055355.7,286046995.1,N
1510055375.6,286046996.6,N
1510055395.4,286046999.1,N
1510055415.2,286046995.4,N
1510055435.1,286046990.5,N
1510055436.0,286046990.5,N
1510055455.8,286046985.3,N
1510055475.6,286046989.9,N
1510055495.5,286046992.4,N
1510055515.3,286046994.7,N
1510055535.1,286046992.5,N
1510055555.9,286046994.2,N
1510055575.7,286046997.2,N
1510055595.6,286046997.5,N
1510055615.4,286046992.9,N
1510055635.2,286046989.7,Y
1510055655.1,286046993.5,P
1510055656.0,286046993.5,P
1510055675.8,286046989.5,P
1510055695.6,286046986.6,Y
1510055715.5,286046996.4,P
1510055735.3,286047005.8,N
1510055755.2,286047009.5,N
1510055775.9,286047017.0,N
1510055795.7,286047013.2,N
1510055815.6,286047006.5,N
1510055835.4,286047007.2,N
1510055855.2,286047009.2,N
1510055875.1,286047006.9,N
1510055876.0,286047006.9,N
1510055895.8,286047006.9,N
1510055915.6,286047005.9,N
1510055935.5,286047006.0,N
1510055955.3,286047005.1,N
1510055975.1,286047004.5,N
1510055995.9,286047004.0,N
